This is the latest recevied weather packets stored in our database for station/object IZ3LCH-13. If no packets are shown the sender has not sent any weather packets the latest 1 day(s).
| Time | Temp. | Humidity | Pressure | Rain* | Wind** | Luminosity | Snow |
|---|---|---|---|---|---|---|---|
| 1777957803 | 14.44° C | 71% | 1012.9 hPa | 0 mm | 0.45 m/s, 72° | - | - |
| 1777957503 | 14.44° C | 72% | 1013 hPa | 0 mm | 0.45 m/s, 125° | - | - |
| 1777957203 | 14.44° C | 72% | 1012.9 hPa | 0 mm | 0.89 m/s, 66° | - | - |
| 1777956903 | 14.44° C | 73% | 1012.8 hPa | 0 mm | 0.89 m/s, 35° | - | - |
| 1777956603 | 14.44° C | 73% | 1012.5 hPa | 0 mm | 0.45 m/s, 75° | - | - |
| 1777956303 | 14.44° C | 73% | 1012.9 hPa | 0 mm | 0.45 m/s, 152° | - | - |
| 1777956003 | 14.44° C | 73% | 1012.8 hPa | 0 mm | 0.45 m/s, 155° | - | - |
| 1777955703 | 14.44° C | 73% | 1012.9 hPa | 0 mm | 0.45 m/s, 130° | - | - |
| 1777955403 | 14.44° C | 74% | 1013 hPa | 0 mm | 0 m/s | - | - |
| 1777955103 | 14.44° C | 75% | 1012.9 hPa | 0 mm | 0 m/s | - | - |
| 1777954803 | 14.44° C | 75% | 1012.9 hPa | 0 mm | 0.45 m/s, 86° | - | - |
| 1777954503 | 14.44° C | 74% | 1012.9 hPa | 0 mm | 0.45 m/s, 43° | - | - |
| 1777954203 | 14.44° C | 74% | 1013.1 hPa | 0 mm | 0.45 m/s, 30° | - | - |
| 1777953903 | 14.44° C | 74% | 1012.8 hPa | 0 mm | 0.45 m/s, 177° | - | - |
| 1777953603 | 14.44° C | 74% | 1012.8 hPa | 0 mm | 0.45 m/s, 104° | - | - |
| 1777953303 | 13.89° C | 72% | 1012.8 hPa | 0 mm | 0.45 m/s, 16° | - | - |
| 1777953003 | 13.89° C | 72% | 1012.9 hPa | 0 mm | 0.45 m/s, 360° | - | - |
| 1777952703 | 13.89° C | 72% | 1012.8 hPa | 0 mm | 0.45 m/s, 337° | - | - |
| 1777952403 | 13.89° C | 72% | 1012.7 hPa | 0 mm | 0.45 m/s, 337° | - | - |
| 1777952103 | 13.89° C | 72% | 1013.1 hPa | 0 mm | 0 m/s | - | - |
| 1777951803 | 13.89° C | 72% | 1012.9 hPa | 0 mm | 0 m/s | - | - |
| 1777951503 | 13.89° C | 72% | 1012.9 hPa | 0 mm | 0.45 m/s, 32° | - | - |
| 1777951203 | 13.89° C | 72% | 1012.8 hPa | 0 mm | 0.89 m/s, 26° | - | - |
| 1777950903 | 13.89° C | 72% | 1012.6 hPa | 0 mm | 0.89 m/s, 13° | - | - |
| 1777950604 | 13.89° C | 72% | 1012.6 hPa | 0 mm | 0.89 m/s, 7° | - | - |
* Rain latest hour (hover to see other rain measurements)
** Current wind speed in m/s (hover to see current wind gust speed)